Time,TemperatureF,DewpointF,PressureIn,WindDirection,WindDirectionDegrees,WindSpeedMPH,WindSpeedGustMPH,Humidity,HourlyPrecipIn,Conditions,Clouds,dailyrainin,SoftwareType,DateUTC
2013-05-09 00:02:00,70.7,64.9,29.92,SSE,150,1.0,7.0,82,0.00,,,0.00,WeatherTracker,2013-05-09 05:02:00,
2013-05-09 00:07:00,70.7,64.9,29.92,NE,45,2.0,6.0,82,0.00,,,0.00,WeatherTracker,2013-05-09 05:07:00,
2013-05-09 00:12:00,70.7,64.9,29.92,South,169,0.0,9.0,82,0.00,,,0.00,WeatherTracker,2013-05-09 05:12:00,
2013-05-09 00:17:00,70.7,65.3,29.92,ESE,113,0.0,9.0,83,0.00,,,0.00,WeatherTracker,2013-05-09 05:17:00,
2013-05-09 00:22:00,70.7,65.3,29.92,SE,132,3.0,7.0,83,0.00,,,0.00,WeatherTracker,2013-05-09 05:22:00,
2013-05-09 00:27:00,70.6,65.2,29.92,SSW,212,0.0,7.0,83,0.00,,,0.00,WeatherTracker,2013-05-09 05:27:00,
2013-05-09 00:32:00,70.6,65.2,29.91,East,100,1.0,7.0,83,0.00,,,0.00,WeatherTracker,2013-05-09 05:32:00,
2013-05-09 00:37:00,70.7,65.3,29.91,ESE,114,0.0,6.0,83,0.00,,,0.00,WeatherTracker,2013-05-09 05:37:00,
2013-05-09 00:42:00,70.7,65.3,29.91,SSE,155,0.0,6.0,83,0.00,,,0.00,WeatherTracker,2013-05-09 05:42:00,
2013-05-09 00:47:00,70.7,65.3,29.91,NE,49,0.0,6.0,83,0.00,,,0.00,WeatherTracker,2013-05-09 05:47:00,
2013-05-09 00:52:00,70.7,65.3,29.91,South,184,3.0,12.0,83,0.00,,,0.00,WeatherTracker,2013-05-09 05:52:00,
2013-05-09 00:57:00,70.7,65.3,29.91,North,360,1.0,12.0,83,0.00,,,0.00,WeatherTracker,2013-05-09 05:57:00,
2013-05-09 01:02:00,70.7,65.3,29.91,SW,222,2.0,7.0,83,0.00,,,0.00,WeatherTracker,2013-05-09 06:02:00,
2013-05-09 01:07:00,70.8,65.4,29.91,SSW,204,3.0,7.0,83,0.00,,,0.00,WeatherTracker,2013-05-09 06:07:00,
2013-05-09 01:12:00,70.7,65.3,29.90,East,83,2.0,7.0,83,0.00,,,0.00,WeatherTracker,2013-05-09 06:12:00,
2013-05-09 01:18:00,70.7,65.3,29.90,SSE,160,0.0,6.0,83,0.00,,,0.00,WeatherTracker,2013-05-09 06:18:00,
2013-05-09 01:23:00,70.7,65.3,29.90,West,281,1.0,10.0,83,0.00,,,0.00,WeatherTracker,2013-05-09 06:23:00,
2013-05-09 01:28:00,70.7,65.6,29.89,SE,132,4.0,10.0,84,0.00,,,0.00,WeatherTracker,2013-05-09 06:28:00,
2013-05-09 01:33:00,70.6,65.5,29.89,South,181,5.0,6.0,84,0.00,,,0.00,WeatherTracker,2013-05-09 06:33:00,
2013-05-09 01:38:00,70.6,65.5,29.89,ESE,115,2.0,8.0,84,0.00,,,0.00,WeatherTracker,2013-05-09 06:38:00,
2013-05-09 01:43:00,70.6,65.5,29.89,SSE,167,0.0,8.0,84,0.00,,,0.00,WeatherTracker,2013-05-09 06:43:00,
2013-05-09 01:48:00,70.6,65.5,29.89,South,174,0.0,10.0,84,0.00,,,0.00,WeatherTracker,2013-05-09 06:48:00,
2013-05-09 01:53:00,70.6,65.5,29.89,SSW,208,0.0,10.0,84,0.00,,,0.00,WeatherTracker,2013-05-09 06:53:00,
2013-05-09 01:58:00,70.5,65.4,29.89,WSW,250,0.0,8.0,84,0.00,,,0.00,WeatherTracker,2013-05-09 06:58:00,
2013-05-09 02:03:00,70.5,65.4,29.89,ESE,113,1.0,8.0,84,0.00,,,0.00,WeatherTracker,2013-05-09 07:03:00,
2013-05-09 02:08:00,70.5,65.4,29.89,SW,236,0.0,7.0,84,0.00,,,0.00,WeatherTracker,2013-05-09 07:08:00,
2013-05-09 02:13:00,70.5,65.4,29.88,SE,145,0.0,7.0,84,0.00,,,0.00,WeatherTracker,2013-05-09 07:13:00,
2013-05-09 02:18:00,70.5,65.4,29.88,SSE,165,0.0,7.0,84,0.00,,,0.00,WeatherTracker,2013-05-09 07:18:00,
2013-05-09 02:23:00,70.4,65.7,29.88,South,180,0.0,7.0,85,0.00,,,0.00,WeatherTracker,2013-05-09 07:23:00,
2013-05-09 02:28:00,70.4,65.7,29.88,South,170,1.0,7.0,85,0.00,,,0.00,WeatherTracker,2013-05-09 07:28:00,
2013-05-09 02:33:00,70.3,65.6,29.88,SSE,150,2.0,7.0,85,0.00,,,0.00,WeatherTracker,2013-05-09 07:33:00,
2013-05-09 02:38:00,70.3,65.6,29.87,East,98,0.0,6.0,85,0.00,,,0.00,WeatherTracker,2013-05-09 07:38:00,
2013-05-09 02:43:00,70.3,65.6,29.87,SSE,160,0.0,8.0,85,0.00,,,0.00,WeatherTracker,2013-05-09 07:43:00,
2013-05-09 02:48:00,70.3,65.6,29.87,SSE,153,0.0,8.0,85,0.00,,,0.00,WeatherTracker,2013-05-09 07:48:00,
2013-05-09 02:53:00,70.3,65.6,29.87,ESE,107,1.0,5.0,85,0.00,,,0.00,WeatherTracker,2013-05-09 07:53:00,
2013-05-09 02:58:00,70.2,65.8,29.88,South,187,0.0,6.0,86,0.00,,,0.00,WeatherTracker,2013-05-09 07:58:00,
2013-05-09 03:04:00,70.2,65.8,29.88,SW,215,1.0,6.0,86,0.00,,,0.00,WeatherTracker,2013-05-09 08:04:00,
2013-05-09 03:09:00,70.1,65.7,29.88,SE,139,0.0,5.0,86,0.00,,,0.00,WeatherTracker,2013-05-09 08:09:00,
2013-05-09 03:14:00,70.1,65.7,29.88,SE,138,1.0,5.0,86,0.00,,,0.00,WeatherTracker,2013-05-09 08:14:00,
2013-05-09 03:19:00,70.1,65.7,29.87,West,259,1.0,5.0,86,0.00,,,0.00,WeatherTracker,2013-05-09 08:19:00,
2013-05-09 03:24:00,70.1,65.7,29.87,West,276,0.0,4.0,86,0.00,,,0.00,WeatherTracker,2013-05-09 08:24:00,
2013-05-09 03:29:00,70.0,65.6,29.87,South,170,2.0,7.0,86,0.00,,,0.00,WeatherTracker,2013-05-09 08:29:00,
2013-05-09 03:34:00,69.9,65.8,29.87,SE,136,0.0,7.0,87,0.00,,,0.00,WeatherTracker,2013-05-09 08:34:00,
2013-05-09 03:39:00,69.9,65.8,29.87,East,95,2.0,7.0,87,0.00,,,0.00,WeatherTracker,2013-05-09 08:39:00,
2013-05-09 03:44:00,69.9,65.8,29.87,SE,141,1.0,5.0,87,0.00,,,0.00,WeatherTracker,2013-05-09 08:44:00,
2013-05-09 03:49:00,69.8,65.7,29.87,ESE,109,2.0,6.0,87,0.00,,,0.00,WeatherTracker,2013-05-09 08:49:00,
2013-05-09 03:54:00,69.8,65.7,29.87,SSE,158,0.0,6.0,87,0.00,,,0.00,WeatherTracker,2013-05-09 08:54:00,
2013-05-09 03:59:00,69.8,65.7,29.87,West,276,0.0,4.0,87,0.00,,,0.00,WeatherTracker,2013-05-09 08:59:00,
2013-05-09 04:04:00,69.8,65.7,29.87,SSE,162,0.0,4.0,87,0.00,,,0.00,WeatherTracker,2013-05-09 09:04:00,
2013-05-09 04:09:00,69.7,66.0,29.87,West,266,0.0,4.0,88,0.00,,,0.00,WeatherTracker,2013-05-09 09:09:00,
2013-05-09 04:14:00,69.8,66.1,29.87,SE,145,0.0,3.0,88,0.00,,,0.00,WeatherTracker,2013-05-09 09:14:00,
2013-05-09 04:19:00,69.7,66.0,29.87,South,174,0.0,3.0,88,0.00,,,0.00,WeatherTracker,2013-05-09 09:19:00,
2013-05-09 04:24:00,69.7,66.0,29.87,ESE,111,1.0,3.0,88,0.00,,,0.00,WeatherTracker,2013-05-09 09:24:00,
2013-05-09 04:30:00,69.7,66.0,29.87,ESE,111,0.0,5.0,88,0.00,,,0.00,WeatherTracker,2013-05-09 09:30:00,
2013-05-09 04:35:00,69.7,66.0,29.87,SE,130,0.0,5.0,88,0.00,,,0.00,WeatherTracker,2013-05-09 09:35:00,
2013-05-09 04:40:00,69.7,66.0,29.88,ESE,117,0.0,4.0,88,0.00,,,0.00,WeatherTracker,2013-05-09 09:40:00,
2013-05-09 04:45:00,69.7,66.0,29.87,ENE,76,0.0,4.0,88,0.00,,,0.00,WeatherTracker,2013-05-09 09:45:00,
2013-05-09 04:50:00,69.7,66.0,29.88,SSE,152,0.0,3.0,88,0.00,,,0.00,WeatherTracker,2013-05-09 09:50:00,
2013-05-09 04:55:00,69.7,66.0,29.88,SE,127,0.0,3.0,88,0.00,,,0.00,WeatherTracker,2013-05-09 09:55:00,
2013-05-09 05:00:00,69.6,65.9,29.87,SSE,166,2.0,4.0,88,0.00,,,0.00,WeatherTracker,2013-05-09 10:00:00,
2013-05-09 05:05:00,69.7,66.0,29.87,SE,132,2.0,4.0,88,0.00,,,0.00,WeatherTracker,2013-05-09 10:05:00,
2013-05-09 05:10:00,69.6,65.9,29.87,ESE,114,2.0,4.0,88,0.00,,,0.00,WeatherTracker,2013-05-09 10:10:00,
2013-05-09 05:15:00,69.6,65.9,29.87,SE,141,0.0,4.0,88,0.00,,,0.00,WeatherTracker,2013-05-09 10:15:00,
2013-05-09 05:20:00,69.6,65.9,29.87,East,100,2.0,3.0,88,0.00,,,0.00,WeatherTracker,2013-05-09 10:20:00,
2013-05-09 05:25:00,69.6,65.9,29.87,ESE,116,0.0,3.0,88,0.00,,,0.00,WeatherTracker,2013-05-09 10:25:00,
2013-05-09 05:30:00,69.6,65.9,29.87,SSE,148,0.0,3.0,88,0.00,,,0.00,WeatherTracker,2013-05-09 10:30:00,
2013-05-09 05:35:00,69.6,65.9,29.87,SSE,156,1.0,7.0,88,0.00,,,0.00,WeatherTracker,2013-05-09 10:35:00,
2013-05-09 05:40:00,69.6,65.9,29.87,SSE,156,0.0,7.0,88,0.00,,,0.00,WeatherTracker,2013-05-09 10:40:00,
2013-05-09 05:45:00,69.6,65.9,29.87,SSW,197,0.0,2.0,88,0.00,,,0.00,WeatherTracker,2013-05-09 10:45:00,
2013-05-09 05:50:00,69.6,65.9,29.87,SE,139,0.0,2.0,88,0.00,,,0.00,WeatherTracker,2013-05-09 10:50:00,
2013-05-09 05:55:00,69.6,66.2,29.88,East,89,0.0,1.0,89,0.00,,,0.00,WeatherTracker,2013-05-09 10:55:00,
2013-05-09 06:00:00,69.6,66.2,29.87,SE,137,0.0,2.0,89,0.00,,,0.00,WeatherTracker,2013-05-09 11:00:00,
2013-05-09 06:05:00,69.6,66.2,29.87,SE,143,0.0,3.0,89,0.00,,,0.00,WeatherTracker,2013-05-09 11:05:00,
2013-05-09 06:11:00,69.6,66.2,29.87,SSE,160,0.0,3.0,89,0.00,,,0.00,WeatherTracker,2013-05-09 11:11:00,
2013-05-09 06:16:00,69.5,66.1,29.88,East,96,0.0,4.0,89,0.00,,,0.00,WeatherTracker,2013-05-09 11:16:00,
2013-05-09 06:21:00,69.5,66.4,29.88,East,101,0.0,4.0,90,0.00,,,0.00,WeatherTracker,2013-05-09 11:21:00,
2013-05-09 06:26:00,69.5,66.4,29.88,East,101,0.0,3.0,90,0.00,,,0.00,WeatherTracker,2013-05-09 11:26:00,
2013-05-09 06:31:00,69.4,66.3,29.88,ESE,110,0.0,0.0,90,0.00,,,0.00,WeatherTracker,2013-05-09 11:31:00,
2013-05-09 06:36:00,69.3,66.6,29.88,ESE,110,0.0,1.0,91,0.00,,,0.00,WeatherTracker,2013-05-09 11:36:00,
2013-05-09 06:41:00,69.2,66.5,29.88,ESE,108,0.0,1.0,91,0.00,,,0.00,WeatherTracker,2013-05-09 11:41:00,
2013-05-09 06:46:00,69.1,66.7,29.88,ESE,113,0.0,1.0,92,0.00,,,0.00,WeatherTracker,2013-05-09 11:46:00,
2013-05-09 06:51:00,69.0,66.6,29.88,SE,124,0.0,1.0,92,0.00,,,0.00,WeatherTracker,2013-05-09 11:51:00,
2013-05-09 06:56:00,69.0,66.6,29.88,SE,128,0.0,2.0,92,0.00,,,0.00,WeatherTracker,2013-05-09 11:56:00,
2013-05-09 07:01:00,68.9,66.8,29.88,SSE,152,0.0,2.0,93,0.00,,,0.00,WeatherTracker,2013-05-09 12:01:00,
2013-05-09 07:06:00,68.9,66.8,29.88,SSE,159,0.0,2.0,93,0.00,,,0.00,WeatherTracker,2013-05-09 12:06:00,
2013-05-09 07:11:00,68.9,66.8,29.88,SE,129,0.0,2.0,93,0.00,,,0.00,WeatherTracker,2013-05-09 12:11:00,
2013-05-09 07:16:00,68.8,67.0,29.88,SSE,147,1.0,2.0,94,0.00,,,0.00,WeatherTracker,2013-05-09 12:16:00,
2013-05-09 07:21:00,68.8,67.0,29.88,SE,127,0.0,2.0,94,0.00,,,0.00,WeatherTracker,2013-05-09 12:21:00,
2013-05-09 07:26:00,68.8,67.0,29.89,SSE,152,0.0,2.0,94,0.00,,,0.00,WeatherTracker,2013-05-09 12:26:00,
2013-05-09 07:31:00,68.9,67.1,29.89,South,175,0.0,2.0,94,0.00,,,0.00,WeatherTracker,2013-05-09 12:31:00,
2013-05-09 07:36:00,68.9,67.1,29.89,ESE,122,0.0,2.0,94,0.00,,,0.00,WeatherTracker,2013-05-09 12:36:00,
2013-05-09 07:41:00,68.9,67.1,29.89,SSE,153,0.0,3.0,94,0.01,,,0.01,WeatherTracker,2013-05-09 12:41:00,
2013-05-09 07:46:00,69.0,67.5,29.89,SSE,168,0.0,3.0,95,0.01,,,0.01,WeatherTracker,2013-05-09 12:46:00,
2013-05-09 07:52:00,69.0,67.5,29.89,SE,132,0.0,1.0,95,0.01,,,0.01,WeatherTracker,2013-05-09 12:52:00,
2013-05-09 07:57:00,69.1,67.6,29.89,SSE,158,0.0,1.0,95,0.01,,,0.01,WeatherTracker,2013-05-09 12:57:00,
2013-05-09 08:02:00,69.2,67.7,29.89,SE,145,0.0,1.0,95,0.01,,,0.01,WeatherTracker,2013-05-09 13:02:00,
2013-05-09 08:07:00,69.2,67.7,29.89,SE,129,0.0,2.0,95,0.01,,,0.01,WeatherTracker,2013-05-09 13:07:00,
2013-05-09 08:12:00,69.3,67.8,29.89,East,96,0.0,2.0,95,0.01,,,0.01,WeatherTracker,2013-05-09 13:12:00,
2013-05-09 08:17:00,69.4,67.9,29.89,SE,143,2.0,2.0,95,0.01,,,0.01,WeatherTracker,2013-05-09 13:17:00,
2013-05-09 08:22:00,69.4,67.9,29.89,South,176,0.0,3.0,95,0.01,,,0.01,WeatherTracker,2013-05-09 13:22:00,
2013-05-09 08:27:00,69.6,68.1,29.89,SSE,157,0.0,3.0,95,0.01,,,0.01,WeatherTracker,2013-05-09 13:27:00,
2013-05-09 08:32:00,69.7,68.2,29.89,SSE,148,0.0,4.0,95,0.01,,,0.01,WeatherTracker,2013-05-09 13:32:00,
2013-05-09 08:37:00,69.9,68.4,29.89,South,169,3.0,4.0,95,0.01,,,0.01,WeatherTracker,2013-05-09 13:37:00,
2013-05-09 08:42:00,70.1,68.3,29.89,SSE,148,0.0,4.0,94,0.00,,,0.01,WeatherTracker,2013-05-09 13:42:00,
2013-05-09 08:47:00,70.3,68.5,29.89,South,174,0.0,4.0,94,0.00,,,0.01,WeatherTracker,2013-05-09 13:47:00,
2013-05-09 08:52:00,70.5,68.4,29.89,SSE,167,1.0,4.0,93,0.00,,,0.01,WeatherTracker,2013-05-09 13:52:00,
2013-05-09 08:57:00,70.7,68.6,29.89,SE,141,0.0,4.0,93,0.00,,,0.01,WeatherTracker,2013-05-09 13:57:00,
2013-05-09 09:02:00,70.9,68.5,29.89,East,90,2.0,4.0,92,0.00,,,0.01,WeatherTracker,2013-05-09 14:02:00,
2013-05-09 09:07:00,71.1,68.7,29.89,East,81,0.0,5.0,92,0.00,,,0.01,WeatherTracker,2013-05-09 14:07:00,
2013-05-09 09:12:00,71.3,68.5,29.89,SSE,161,4.0,5.0,91,0.00,,,0.01,WeatherTracker,2013-05-09 14:12:00,
2013-05-09 09:17:00,71.6,68.5,29.89,SE,145,2.0,8.0,90,0.00,,,0.01,WeatherTracker,2013-05-09 14:17:00,
2013-05-09 09:22:00,71.9,68.8,29.89,ESE,115,1.0,8.0,90,0.00,,,0.01,WeatherTracker,2013-05-09 14:22:00,
2013-05-09 09:27:00,72.1,68.7,29.89,SE,132,0.0,7.0,89,0.00,,,0.01,WeatherTracker,2013-05-09 14:27:00,
2013-05-09 09:32:00,72.5,69.1,29.89,East,88,1.0,7.0,89,0.00,,,0.01,WeatherTracker,2013-05-09 14:32:00,
2013-05-09 09:37:00,72.6,68.8,29.89,East,80,0.0,6.0,88,0.00,,,0.01,WeatherTracker,2013-05-09 14:37:00,
2013-05-09 09:43:00,72.6,68.8,29.90,SE,125,0.0,6.0,88,0.00,,,0.01,WeatherTracker,2013-05-09 14:43:00,
2013-05-09 09:48:00,72.7,68.9,29.89,SE,132,2.0,5.0,88,0.00,,,0.01,WeatherTracker,2013-05-09 14:48:00,
2013-05-09 09:53:00,72.8,69.0,29.89,SSE,167,0.0,6.0,88,0.00,,,0.01,WeatherTracker,2013-05-09 14:53:00,
2013-05-09 09:58:00,72.9,69.1,29.89,West,263,0.0,6.0,88,0.00,,,0.01,WeatherTracker,2013-05-09 14:58:00,
2013-05-09 10:03:00,73.0,68.9,29.89,SSW,208,2.0,6.0,87,0.00,,,0.01,WeatherTracker,2013-05-09 15:03:00,
2013-05-09 10:08:00,73.2,69.1,29.88,West,260,1.0,8.0,87,0.00,,,0.01,WeatherTracker,2013-05-09 15:08:00,
2013-05-09 10:13:00,73.5,69.0,29.88,ESE,122,1.0,9.0,86,0.00,,,0.01,WeatherTracker,2013-05-09 15:13:00,
2013-05-09 10:18:00,73.7,69.2,29.88,SSE,167,1.0,9.0,86,0.00,,,0.01,WeatherTracker,2013-05-09 15:18:00,
2013-05-09 10:23:00,73.9,69.1,29.88,SSW,209,0.0,11.0,85,0.00,,,0.01,WeatherTracker,2013-05-09 15:23:00,
2013-05-09 10:28:00,74.1,69.3,29.88,SSE,168,0.0,11.0,85,0.00,,,0.01,WeatherTracker,2013-05-09 15:28:00,
2013-05-09 10:33:00,74.1,69.3,29.88,South,173,3.0,10.0,85,0.00,,,0.01,WeatherTracker,2013-05-09 15:33:00,
2013-05-09 10:38:00,74.1,68.9,29.88,WNW,285,2.0,7.0,84,0.00,,,0.01,WeatherTracker,2013-05-09 15:38:00,
2013-05-09 10:43:00,74.1,69.3,29.88,West,268,0.0,10.0,85,0.00,,,0.01,WeatherTracker,2013-05-09 15:43:00,
2013-05-09 10:48:00,74.3,69.1,29.88,SSE,161,0.0,10.0,84,0.00,,,0.01,WeatherTracker,2013-05-09 15:48:00,
2013-05-09 10:53:00,74.5,69.0,29.88,ENE,62,7.0,8.0,83,0.00,,,0.01,WeatherTracker,2013-05-09 15:53:00,
2013-05-09 10:58:00,74.6,69.1,29.88,NNW,345,1.0,11.0,83,0.00,,,0.01,WeatherTracker,2013-05-09 15:58:00,
2013-05-09 11:03:00,74.8,69.3,29.88,SW,231,0.0,11.0,83,0.00,,,0.01,WeatherTracker,2013-05-09 16:03:00,
2013-05-09 11:08:00,75.2,69.3,29.88,SE,141,0.0,9.0,82,0.00,,,0.01,WeatherTracker,2013-05-09 16:08:00,
2013-05-09 11:13:00,75.3,69.4,29.88,SSE,160,2.0,9.0,82,0.00,,,0.01,WeatherTracker,2013-05-09 16:13:00,
2013-05-09 11:19:00,75.8,69.9,29.88,WSW,252,0.0,8.0,82,0.00,,,0.01,WeatherTracker,2013-05-09 16:19:00,
2013-05-09 11:24:00,76.0,69.7,29.88,SSW,203,1.0,4.0,81,0.00,,,0.01,WeatherTracker,2013-05-09 16:24:00,
2013-05-09 11:29:00,75.9,69.6,29.88,SE,134,3.0,8.0,81,0.00,,,0.01,WeatherTracker,2013-05-09 16:29:00,
2013-05-09 11:34:00,75.6,69.3,29.88,WSW,246,0.0,8.0,81,0.00,,,0.01,WeatherTracker,2013-05-09 16:34:00,
2013-05-09 11:39:00,75.6,69.3,29.88,ENE,61,0.0,6.0,81,0.00,,,0.01,WeatherTracker,2013-05-09 16:39:00,
2013-05-09 11:44:00,75.9,69.3,29.88,SW,228,0.0,6.0,80,0.00,,,0.01,WeatherTracker,2013-05-09 16:44:00,
2013-05-09 11:49:00,76.1,69.5,29.88,SSE,166,5.0,7.0,80,0.00,,,0.01,WeatherTracker,2013-05-09 16:49:00,
2013-05-09 11:54:00,76.2,69.6,29.88,SW,225,1.0,7.0,80,0.00,,,0.01,WeatherTracker,2013-05-09 16:54:00,
2013-05-09 11:59:00,76.3,69.3,29.88,WSW,250,2.0,5.0,79,0.00,,,0.01,WeatherTracker,2013-05-09 16:59:00,
2013-05-09 12:04:00,76.1,69.5,29.88,SSE,166,0.0,8.0,80,0.00,,,0.01,WeatherTracker,2013-05-09 17:04:00,
2013-05-09 12:09:00,76.1,69.5,29.88,SW,225,0.0,8.0,80,0.00,,,0.01,WeatherTracker,2013-05-09 17:09:00,
2013-05-09 12:14:00,76.1,69.5,29.88,SE,146,0.0,6.0,80,0.00,,,0.01,WeatherTracker,2013-05-09 17:14:00,
2013-05-09 12:19:00,76.0,69.4,29.88,SW,222,0.0,6.0,80,0.00,,,0.01,WeatherTracker,2013-05-09 17:19:00,
2013-05-09 12:24:00,75.8,69.2,29.89,South,174,0.0,4.0,80,0.00,,,0.01,WeatherTracker,2013-05-09 17:24:00,
2013-05-09 12:29:00,75.9,69.3,29.89,SSE,165,0.0,4.0,80,0.00,,,0.01,WeatherTracker,2013-05-09 17:29:00,
2013-05-09 12:34:00,75.9,69.3,29.88,SSE,158,0.0,3.0,80,0.00,,,0.01,WeatherTracker,2013-05-09 17:34:00,
2013-05-09 12:39:00,75.8,68.8,29.89,SSE,159,2.0,5.0,79,0.00,,,0.01,WeatherTracker,2013-05-09 17:39:00,
2013-05-09 12:44:00,75.6,69.0,29.88,ENE,69,2.0,6.0,80,0.00,,,0.01,WeatherTracker,2013-05-09 17:44:00,
2013-05-09 12:50:00,75.6,69.0,29.88,SSW,210,0.0,6.0,80,0.00,,,0.01,WeatherTracker,2013-05-09 17:50:00,
2013-05-09 12:55:00,75.7,69.1,29.88,SSE,149,3.0,8.0,80,0.00,,,0.01,WeatherTracker,2013-05-09 17:55:00,
2013-05-09 13:00:00,75.9,69.3,29.88,WSW,243,0.0,8.0,80,0.00,,,0.01,WeatherTracker,2013-05-09 18:00:00,
2013-05-09 13:05:00,75.9,69.3,29.87,WSW,257,1.0,7.0,80,0.00,,,0.01,WeatherTracker,2013-05-09 18:05:00,
2013-05-09 13:10:00,76.0,69.0,29.87,SSE,161,0.0,7.0,79,0.00,,,0.01,WeatherTracker,2013-05-09 18:10:00,
2013-05-09 13:15:00,76.0,69.0,29.87,NNE,22,0.0,6.0,79,0.00,,,0.01,WeatherTracker,2013-05-09 18:15:00,
2013-05-09 13:20:00,76.2,69.6,29.87,WNW,284,0.0,4.0,80,0.00,,,0.01,WeatherTracker,2013-05-09 18:20:00,
2013-05-09 13:25:00,76.4,69.4,29.87,South,188,0.0,5.0,79,0.00,,,0.01,WeatherTracker,2013-05-09 18:25:00,
2013-05-09 13:30:00,76.4,69.4,29.86,WSW,242,0.0,7.0,79,0.00,,,0.01,WeatherTracker,2013-05-09 18:30:00,
2013-05-09 13:35:00,76.4,69.4,29.87,SSE,152,0.0,7.0,79,0.00,,,0.01,WeatherTracker,2013-05-09 18:35:00,
2013-05-09 13:40:00,76.3,69.3,29.87,SE,141,1.0,3.0,79,0.00,,,0.01,WeatherTracker,2013-05-09 18:40:00,
2013-05-09 13:45:00,76.4,69.8,29.86,West,259,1.0,5.0,80,0.00,,,0.01,WeatherTracker,2013-05-09 18:45:00,
2013-05-09 13:50:00,76.5,69.9,29.86,WSW,252,0.0,5.0,80,0.00,,,0.01,WeatherTracker,2013-05-09 18:50:00,
2013-05-09 13:55:00,76.6,69.6,29.86,WNW,288,0.0,4.0,79,0.00,,,0.01,WeatherTracker,2013-05-09 18:55:00,
2013-05-09 14:00:00,76.7,69.7,29.86,WNW,287,0.0,5.0,79,0.00,,,0.01,WeatherTracker,2013-05-09 19:00:00,
2013-05-09 14:05:00,76.9,69.9,29.86,West,264,0.0,5.0,79,0.00,,,0.01,WeatherTracker,2013-05-09 19:05:00,
2013-05-09 14:10:00,77.0,70.0,29.85,SE,146,0.0,2.0,79,0.00,,,0.01,WeatherTracker,2013-05-09 19:10:00,
2013-05-09 14:15:00,77.1,70.1,29.85,WSW,255,0.0,4.0,79,0.00,,,0.01,WeatherTracker,2013-05-09 19:15:00,
2013-05-09 14:20:00,77.2,69.8,29.85,WSW,245,0.0,4.0,78,0.00,,,0.01,WeatherTracker,2013-05-09 19:20:00,
2013-05-09 14:25:00,77.2,70.2,29.85,SW,225,0.0,6.0,79,0.00,,,0.01,WeatherTracker,2013-05-09 19:25:00,
2013-05-09 14:31:00,77.3,70.3,29.85,SSE,151,0.0,6.0,79,0.00,,,0.01,WeatherTracker,2013-05-09 19:31:00,
2013-05-09 14:36:00,77.2,70.2,29.85,WNW,283,0.0,2.0,79,0.00,,,0.01,WeatherTracker,2013-05-09 19:36:00,
2013-05-09 14:41:00,77.1,70.1,29.85,West,265,0.0,5.0,79,0.00,,,0.01,WeatherTracker,2013-05-09 19:41:00,
2013-05-09 14:46:00,77.0,70.0,29.85,SE,140,0.0,5.0,79,0.00,,,0.01,WeatherTracker,2013-05-09 19:46:00,
2013-05-09 14:51:00,76.9,69.9,29.85,ENE,68,0.0,3.0,79,0.00,,,0.01,WeatherTracker,2013-05-09 19:51:00,
2013-05-09 14:56:00,76.8,69.8,29.85,SSE,152,0.0,3.0,79,0.00,,,0.01,WeatherTracker,2013-05-09 19:56:00,
2013-05-09 15:01:00,76.7,70.1,29.85,SE,146,0.0,3.0,80,0.00,,,0.01,WeatherTracker,2013-05-09 20:01:00,
2013-05-09 15:06:00,76.6,70.0,29.85,SSE,148,0.0,2.0,80,0.00,,,0.01,WeatherTracker,2013-05-09 20:06:00,
2013-05-09 15:11:00,76.6,70.3,29.85,West,261,0.0,2.0,81,0.00,,,0.01,WeatherTracker,2013-05-09 20:11:00,
2013-05-09 15:16:00,76.5,69.9,29.85,West,263,0.0,1.0,80,0.00,,,0.01,WeatherTracker,2013-05-09 20:16:00,
2013-05-09 15:21:00,76.5,70.2,29.85,West,263,0.0,0.0,81,0.00,,,0.01,WeatherTracker,2013-05-09 20:21:00,
2013-05-09 15:26:00,76.5,70.2,29.84,West,263,0.0,0.0,81,0.00,,,0.01,WeatherTracker,2013-05-09 20:26:00,
2013-05-09 15:31:00,76.4,70.1,29.84,West,262,0.0,0.0,81,0.00,,,0.01,WeatherTracker,2013-05-09 20:31:00,
2013-05-09 15:36:00,76.4,70.5,29.84,West,262,0.0,0.0,82,0.00,,,0.01,WeatherTracker,2013-05-09 20:36:00,
2013-05-09 15:41:00,76.4,70.5,29.84,West,262,0.0,1.0,82,0.00,,,0.01,WeatherTracker,2013-05-09 20:41:00,
2013-05-09 15:46:00,76.4,70.5,29.83,West,262,0.0,1.0,82,0.00,,,0.01,WeatherTracker,2013-05-09 20:46:00,
2013-05-09 15:51:00,76.4,70.5,29.84,West,261,0.0,0.0,82,0.00,,,0.01,WeatherTracker,2013-05-09 20:51:00,
2013-05-09 15:56:00,76.3,70.4,29.83,SE,133,0.0,0.0,82,0.00,,,0.01,WeatherTracker,2013-05-09 20:56:00,
2013-05-09 16:02:00,76.1,70.2,29.83,SE,132,0.0,0.0,82,0.00,,,0.01,WeatherTracker,2013-05-09 21:02:00,
2013-05-09 16:07:00,75.9,70.7,29.82,SE,132,0.0,1.0,84,0.00,,,0.01,WeatherTracker,2013-05-09 21:07:00,
2013-05-09 16:12:00,75.9,71.1,29.82,SE,133,0.0,1.0,85,0.00,,,0.01,WeatherTracker,2013-05-09 21:12:00,
2013-05-09 16:17:00,76.0,70.8,29.82,SE,132,0.0,0.0,84,0.00,,,0.01,WeatherTracker,2013-05-09 21:17:00,
2013-05-09 16:22:00,76.0,70.8,29.82,SSE,155,0.0,0.0,84,0.00,,,0.01,WeatherTracker,2013-05-09 21:22:00,
2013-05-09 16:27:00,76.1,70.9,29.82,SSE,155,0.0,0.0,84,0.00,,,0.01,WeatherTracker,2013-05-09 21:27:00,
2013-05-09 16:32:00,76.1,70.5,29.82,SSE,155,0.0,0.0,83,0.00,,,0.01,WeatherTracker,2013-05-09 21:32:00,
2013-05-09 16:37:00,76.2,70.6,29.82,SSE,155,0.0,0.0,83,0.00,,,0.01,WeatherTracker,2013-05-09 21:37:00,
2013-05-09 16:42:00,76.3,70.7,29.81,SSE,155,0.0,0.0,83,0.00,,,0.01,WeatherTracker,2013-05-09 21:42:00,
2013-05-09 16:47:00,76.7,71.1,29.81,SSE,155,0.0,0.0,83,0.00,,,0.01,WeatherTracker,2013-05-09 21:47:00,
2013-05-09 16:52:00,76.9,71.0,29.80,SE,128,0.0,3.0,82,0.00,,,0.01,WeatherTracker,2013-05-09 21:52:00,
2013-05-09 16:57:00,77.6,71.3,29.80,SE,132,0.0,3.0,81,0.00,,,0.01,WeatherTracker,2013-05-09 21:57:00,
2013-05-09 17:02:00,78.5,71.8,29.80,SE,141,0.0,1.0,80,0.00,,,0.01,WeatherTracker,2013-05-09 22:02:00,
2013-05-09 17:07:00,79.4,71.9,29.80,SSE,155,1.0,1.0,78,0.00,,,0.01,WeatherTracker,2013-05-09 22:07:00,
2013-05-09 17:12:00,79.6,71.7,29.80,West,275,0.0,2.0,77,0.00,,,0.01,WeatherTracker,2013-05-09 22:12:00,
2013-05-09 17:17:00,79.4,71.5,29.80,West,276,0.0,2.0,77,0.00,,,0.01,WeatherTracker,2013-05-09 22:17:00,
2013-05-09 17:22:00,79.5,71.6,29.79,SE,135,1.0,2.0,77,0.00,,,0.01,WeatherTracker,2013-05-09 22:22:00,
2013-05-09 17:27:00,79.8,72.3,29.79,SSE,152,0.0,2.0,78,0.00,,,0.01,WeatherTracker,2013-05-09 22:27:00,
2013-05-09 17:33:00,79.8,71.5,29.79,West,264,0.0,1.0,76,0.00,,,0.01,WeatherTracker,2013-05-09 22:33:00,
2013-05-09 17:38:00,79.6,71.7,29.79,West,261,0.0,2.0,77,0.00,,,0.01,WeatherTracker,2013-05-09 22:38:00,
2013-05-09 17:43:00,79.6,71.3,29.79,NNE,30,0.0,2.0,76,0.00,,,0.01,WeatherTracker,2013-05-09 22:43:00,
2013-05-09 17:48:00,79.9,71.6,29.79,South,169,0.0,1.0,76,0.00,,,0.01,WeatherTracker,2013-05-09 22:48:00,
2013-05-09 17:53:00,80.2,71.5,29.80,SE,146,0.0,1.0,75,0.00,,,0.01,WeatherTracker,2013-05-09 22:53:00,
2013-05-09 17:58:00,80.4,71.3,29.79,South,180,1.0,3.0,74,0.00,,,0.01,WeatherTracker,2013-05-09 22:58:00,
2013-05-09 18:03:00,80.5,71.4,29.79,ENE,72,1.0,3.0,74,0.00,,,0.01,WeatherTracker,2013-05-09 23:03:00,
2013-05-09 18:08:00,80.4,71.3,29.79,South,191,0.0,2.0,74,0.00,,,0.01,WeatherTracker,2013-05-09 23:08:00,
2013-05-09 18:13:00,80.2,71.1,29.79,East,98,1.0,2.0,74,0.00,,,0.01,WeatherTracker,2013-05-09 23:13:00,
2013-05-09 18:18:00,79.9,70.9,29.79,ENE,71,0.0,2.0,74,0.00,,,0.01,WeatherTracker,2013-05-09 23:18:00,
2013-05-09 18:23:00,79.6,71.0,29.79,East,87,0.0,3.0,75,0.00,,,0.01,WeatherTracker,2013-05-09 23:23:00,
2013-05-09 18:28:00,79.3,71.1,29.79,SSE,152,0.0,3.0,76,0.00,,,0.01,WeatherTracker,2013-05-09 23:28:00,
2013-05-09 18:33:00,79.2,71.3,29.79,SSE,153,0.0,1.0,77,0.00,,,0.01,WeatherTracker,2013-05-09 23:33:00,
2013-05-09 18:38:00,79.0,71.2,29.79,SSE,163,0.0,0.0,77,0.00,,,0.01,WeatherTracker,2013-05-09 23:38:00,
2013-05-09 18:43:00,78.8,71.0,29.78,East,79,0.0,2.0,77,0.00,,,0.01,WeatherTracker,2013-05-09 23:43:00,
2013-05-09 18:48:00,78.7,70.9,29.78,SSE,160,0.0,2.0,77,0.00,,,0.01,WeatherTracker,2013-05-09 23:48:00,
2013-05-09 18:53:00,78.6,70.8,29.79,East,81,0.0,2.0,77,0.00,,,0.01,WeatherTracker,2013-05-09 23:53:00,
2013-05-09 18:58:00,78.7,70.9,29.79,East,101,0.0,1.0,77,0.00,,,0.01,WeatherTracker,2013-05-09 23:58:00,
2013-05-09 19:03:00,78.6,70.8,29.79,ESE,103,0.0,1.0,77,0.00,,,0.01,WeatherTracker,2013-05-10 00:03:00,
2013-05-09 19:08:00,78.6,71.1,29.79,East,101,0.0,2.0,78,0.00,,,0.01,WeatherTracker,2013-05-10 00:08:00,
2013-05-09 19:14:00,78.5,70.7,29.79,ENE,62,0.0,2.0,77,0.00,,,0.01,WeatherTracker,2013-05-10 00:14:00,
2013-05-09 19:19:00,78.4,70.6,29.79,ENE,77,3.0,5.0,77,0.00,,,0.01,WeatherTracker,2013-05-10 00:19:00,
2013-05-09 19:24:00,78.3,70.9,29.79,East,82,1.0,6.0,78,0.00,,,0.01,WeatherTracker,2013-05-10 00:24:00,
2013-05-09 19:29:00,77.9,70.8,29.80,ENE,77,0.0,6.0,79,0.00,,,0.01,WeatherTracker,2013-05-10 00:29:00,
2013-05-09 19:34:00,77.7,71.0,29.79,ENE,63,0.0,5.0,80,0.00,,,0.01,WeatherTracker,2013-05-10 00:34:00,
2013-05-09 19:39:00,77.6,70.9,29.79,ENE,77,1.0,4.0,80,0.00,,,0.01,WeatherTracker,2013-05-10 00:39:00,
2013-05-09 19:44:00,77.5,70.8,29.79,East,80,0.0,4.0,80,0.00,,,0.01,WeatherTracker,2013-05-10 00:44:00,
2013-05-09 19:49:00,77.3,70.6,29.79,East,85,3.0,4.0,80,0.00,,,0.01,WeatherTracker,2013-05-10 00:49:00,
2013-05-09 19:54:00,77.1,70.8,29.78,ENE,58,1.0,5.0,81,0.00,,,0.01,WeatherTracker,2013-05-10 00:54:00,
2013-05-09 19:59:00,76.9,70.6,29.78,ENE,60,0.0,5.0,81,0.00,,,0.01,WeatherTracker,2013-05-10 00:59:00,
2013-05-09 20:04:00,76.7,70.8,29.79,ENE,61,1.0,3.0,82,0.00,,,0.01,WeatherTracker,2013-05-10 01:04:00,
2013-05-09 20:09:00,76.5,70.6,29.79,ESE,117,1.0,2.0,82,0.00,,,0.01,WeatherTracker,2013-05-10 01:09:00,
2013-05-09 20:14:00,76.4,70.5,29.80,East,95,0.0,3.0,82,0.00,,,0.01,WeatherTracker,2013-05-10 01:14:00,
2013-05-09 20:19:00,76.4,70.8,29.80,East,94,0.0,4.0,83,0.00,,,0.01,WeatherTracker,2013-05-10 01:19:00,
2013-05-09 20:24:00,76.3,70.7,29.80,East,84,0.0,4.0,83,0.00,,,0.01,WeatherTracker,2013-05-10 01:24:00,
2013-05-09 20:29:00,76.3,70.7,29.80,East,79,0.0,4.0,83,0.00,,,0.01,WeatherTracker,2013-05-10 01:29:00,
2013-05-09 20:34:00,76.3,70.7,29.81,ENE,75,0.0,5.0,83,0.00,,,0.01,WeatherTracker,2013-05-10 01:34:00,
2013-05-09 20:40:00,76.3,70.7,29.81,East,79,1.0,5.0,83,0.00,,,0.01,WeatherTracker,2013-05-10 01:40:00,
2013-05-09 20:45:00,76.1,70.5,29.81,ENE,68,0.0,4.0,83,0.00,,,0.01,WeatherTracker,2013-05-10 01:45:00,
2013-05-09 20:50:00,75.2,69.0,29.80,ENE,68,1.0,4.0,81,0.00,,,0.01,WeatherTracker,2013-05-10 01:50:00,
2013-05-09 20:55:00,74.3,68.4,29.80,NE,45,1.0,6.0,82,0.00,,,0.01,WeatherTracker,2013-05-10 01:55:00,
2013-05-09 21:00:00,73.8,68.3,29.81,East,79,1.0,6.0,83,0.00,,,0.01,WeatherTracker,2013-05-10 02:00:00,
2013-05-09 21:05:00,73.4,68.3,29.81,East,84,1.0,5.0,84,0.00,,,0.01,WeatherTracker,2013-05-10 02:05:00,
2013-05-09 21:10:00,73.1,68.0,29.81,NE,48,1.0,5.0,84,0.00,,,0.01,WeatherTracker,2013-05-10 02:10:00,
2013-05-09 21:15:00,72.9,68.1,29.81,ENE,71,0.0,3.0,85,0.00,,,0.01,WeatherTracker,2013-05-10 02:15:00,
2013-05-09 21:20:00,72.7,67.9,29.81,East,82,1.0,3.0,85,0.00,,,0.01,WeatherTracker,2013-05-10 02:20:00,
2013-05-09 21:25:00,72.6,67.8,29.82,ESE,107,0.0,4.0,85,0.00,,,0.01,WeatherTracker,2013-05-10 02:25:00,
2013-05-09 21:30:00,72.5,67.7,29.83,ENE,76,2.0,4.0,85,0.00,,,0.01,WeatherTracker,2013-05-10 02:30:00,
2013-05-09 21:35:00,72.4,67.6,29.82,ENE,65,1.0,4.0,85,0.00,,,0.01,WeatherTracker,2013-05-10 02:35:00,
2013-05-09 21:40:00,72.2,67.4,29.83,ENE,57,1.0,4.0,85,0.00,,,0.01,WeatherTracker,2013-05-10 02:40:00,
2013-05-09 21:45:00,72.1,67.3,29.84,East,88,0.0,4.0,85,0.00,,,0.01,WeatherTracker,2013-05-10 02:45:00,
2013-05-09 21:50:00,72.0,67.2,29.84,East,81,1.0,3.0,85,0.00,,,0.01,WeatherTracker,2013-05-10 02:50:00,
2013-05-09 21:55:00,72.0,67.2,29.86,ENE,62,0.0,3.0,85,0.00,,,0.01,WeatherTracker,2013-05-10 02:55:00,
2013-05-09 22:01:00,71.9,66.8,29.86,ENE,76,2.0,3.0,84,0.00,,,0.01,WeatherTracker,2013-05-10 03:01:00,
2013-05-09 22:06:00,71.7,66.6,29.86,NNE,32,2.0,4.0,84,0.00,,,0.01,WeatherTracker,2013-05-10 03:06:00,
2013-05-09 22:11:00,71.6,66.2,29.87,WNW,290,0.0,4.0,83,0.00,,,0.01,WeatherTracker,2013-05-10 03:11:00,
2013-05-09 22:16:00,71.5,66.1,29.87,East,98,3.0,4.0,83,0.00,,,0.01,WeatherTracker,2013-05-10 03:16:00,
2013-05-09 22:21:00,71.5,66.1,29.88,SE,129,2.0,4.0,83,0.00,,,0.01,WeatherTracker,2013-05-10 03:21:00,
2013-05-09 22:26:00,71.5,66.1,29.88,East,98,0.0,4.0,83,0.00,,,0.01,WeatherTracker,2013-05-10 03:26:00,
2013-05-09 22:31:00,71.5,66.1,29.88,East,97,0.0,4.0,83,0.00,,,0.01,WeatherTracker,2013-05-10 03:31:00,
2013-05-09 22:36:00,71.4,66.0,29.89,East,97,0.0,3.0,83,0.00,,,0.01,WeatherTracker,2013-05-10 03:36:00,
2013-05-09 22:41:00,71.2,66.1,29.90,North,359,0.0,1.0,84,0.00,,,0.01,WeatherTracker,2013-05-10 03:41:00,
2013-05-09 22:46:00,71.1,66.0,29.92,NW,309,1.0,1.0,84,0.00,,,0.01,WeatherTracker,2013-05-10 03:46:00,
2013-05-09 22:51:00,71.1,66.4,29.94,NNE,30,1.0,2.0,85,0.00,,,0.01,WeatherTracker,2013-05-10 03:51:00,
2013-05-09 22:56:00,71.2,65.1,29.92,WNW,285,2.0,11.0,81,0.00,,,0.01,WeatherTracker,2013-05-10 03:56:00,
2013-05-09 23:01:00,70.1,61.4,29.92,NE,39,4.0,12.0,74,0.00,,,0.01,WeatherTracker,2013-05-10 04:01:00,
2013-05-09 23:06:00,67.7,59.1,29.91,ENE,76,2.0,12.0,74,0.00,,,0.01,WeatherTracker,2013-05-10 04:06:00,
2013-05-09 23:11:00,66.3,60.3,29.91,NE,49,2.0,12.0,81,0.02,,,0.03,WeatherTracker,2013-05-10 04:11:00,
2013-05-09 23:17:00,64.5,59.6,29.91,SE,143,2.0,10.0,84,0.04,,,0.05,WeatherTracker,2013-05-10 04:17:00,
2013-05-09 23:22:00,63.4,59.8,29.90,East,100,2.0,9.0,88,0.04,,,0.05,WeatherTracker,2013-05-10 04:22:00,
2013-05-09 23:27:00,63.3,60.0,29.90,East,83,4.0,9.0,89,0.05,,,0.06,WeatherTracker,2013-05-10 04:27:00,
2013-05-09 23:32:00,63.2,60.2,29.90,ENE,68,3.0,7.0,90,0.05,,,0.06,WeatherTracker,2013-05-10 04:32:00,
2013-05-09 23:37:00,63.3,60.3,29.89,East,81,1.0,7.0,90,0.05,,,0.06,WeatherTracker,2013-05-10 04:37:00,
2013-05-09 23:42:00,63.3,60.3,29.88,ENE,71,2.0,6.0,90,0.05,,,0.06,WeatherTracker,2013-05-10 04:42:00,
2013-05-09 23:47:00,63.3,60.3,29.88,ENE,77,1.0,6.0,90,0.05,,,0.06,WeatherTracker,2013-05-10 04:47:00,
2013-05-09 23:52:00,63.2,60.5,29.87,East,81,4.0,6.0,91,0.05,,,0.06,WeatherTracker,2013-05-10 04:52:00,
2013-05-09 23:57:00,63.3,60.3,29.86,SW,231,2.0,8.0,90,0.05,,,0.06,WeatherTracker,2013-05-10 04:57:00,